YAM-3 (48915 NORAD) Tracking and Keplerian Element Data

This shows tracking and keplerian element data for the satellite.

Feedback or suggestion? Click here.




ElementValue
Catalog48915
NameYAM-3
Epoch Orbit1682
Epoch Day288.08576411
Epoch Year2021
RAAN55.2861
Inclination97.5235
Eccentricity0.001094
Argument of Perigee212.9574
Mean Anonmoly147.0976
Mean Motion15.12844401
Decay Rate1.256E-05
L11 48915U 21059AN 21288.08576411 .00001256 00000-0 75100-4 0 9998
L22 48915 97.5235 55.2861 0010940 212.9574 147.0976 15.12844401 16822

Live tracking and technical data element details for YAM-3 (NORAD 48915). YAM-3 can be tracked NOW for your location showing map with azimuth and elevation plus other details from your city location.

Track the satellite on the map from your city or location and see movement details for azimuth, elevation, latitude, longitude, range, height, and movement on the map or in text.







IsCatalogInMostPopularTable: catalog: 48915, numindb: 42
Update: records affected: 1



GetName: 48915 YAM-3

Hit Count: updated at: Tue, 19 Oct 2021 08:55:58 GMT